Michigan City, IN

5:21 PM CST on December 14, 2017 (GMT -0600)
Michigan City Municipal

Weather History for KMGC - October, 2012

Change the Weather History Date:

Sunday, October 7, 2012

  Actual Average (KSBN) Record (KSBN)
Temperature  
Mean Temperature 39 °F -  
Max Temperature 46 °F 63 °F 88 °F (2007)
Min Temperature 32 °F 44 °F 25 °F (1935)
Degree Days  
Heating Degree Days 26    
Moisture  
Dew Point 31 °F    
Average Humidity 64    
Maximum Humidity 87    
Minimum Humidity 50    
Precipitation  
Precipitation 0.00 in - - ()
Sea Level Pressure  
Sea Level Pressure 30.14 in    
Wind  
Wind Speed 5 mph ()    
Max Wind Speed 9 mph    
Max Gust Speed 16 mph    
Visibility 10.0 miles    
Events Rain    
Averages and records for this station are not official NWS values.
T = Trace of Precipitation, MM = Missing Value Source: Averaged Metar Reports

Daily Weather History Graph

Daily Weather History Graph

Search for Another Location

Airport or City:

Trip Planner

Search our weather history database for the weather conditions in past years. The results will help you decide how hot, cold, wet, or windy it might be!

Date:

Astronomy

Oct. 07, 2012 Rise Set
Actual Time 6:51 AM CDT 6:18 PM CDT
Civil Twilight 6:23 AM CDT 6:45 PM CDT
Nautical Twilight 5:51 AM CDT 7:17 PM CDT
Astronomical Twilight 5:18 AM CDT 7:50 PM CDT
Moon 11:26 PM CDT (10/7) 1:31 PM CDT (10/7)
Length of Visible Light 12h 22m
Length of Day
11h 26m
Waning Gibbous, 56% of the Moon is Illuminated
Oct 7
Waning Gibbous
Oct 8
Last Quarter
Oct 15
New
Oct 21
First Quarter
Oct 29
Full

Hourly Weather History & Observations

Time (CDT) Temp. Windchill Dew Point Humidity Pressure Visibility Wind Dir Wind Speed Gust Speed Precip Events Conditions
12:15 AM 42.8 °F 38.0 °F 32.0 °F 66% 30.13 in 10.0 mi SSW 8.1 mph - N/A   Overcast
12:35 AM 42.8 °F 38.6 °F 32.0 °F 66% 30.13 in 10.0 mi SW 6.9 mph - N/A   Overcast
12:55 AM 42.8 °F 38.6 °F 32.0 °F 66% 30.13 in 10.0 mi SW 6.9 mph - N/A Rain Light Rain
1:15 AM 42.8 °F 38.6 °F 32.0 °F 66% 30.13 in 10.0 mi SW 6.9 mph - N/A   Overcast
1:35 AM 42.8 °F - 32.0 °F 66% 30.13 in 10.0 mi Calm Calm - N/A   Overcast
1:55 AM 44.6 °F 40.7 °F 33.8 °F 66% 30.13 in 10.0 mi West 6.9 mph - N/A   Light Drizzle
2:15 AM 44.6 °F 40.7 °F 32.0 °F 61% 30.12 in 10.0 mi WNW 6.9 mph - N/A   Overcast
2:35 AM 44.6 °F 40.2 °F 32.0 °F 61% 30.12 in 10.0 mi West 8.1 mph - N/A   Overcast
2:55 AM 44.6 °F 42.2 °F 32.0 °F 61% 30.12 in 10.0 mi WNW 4.6 mph - N/A   Overcast
3:15 AM 44.6 °F 42.2 °F 32.0 °F 61% 30.12 in 10.0 mi WNW 4.6 mph - N/A   Overcast
3:35 AM 44.6 °F 42.2 °F 32.0 °F 61% 30.11 in 10.0 mi WNW 4.6 mph - N/A   Overcast
3:55 AM 44.6 °F 39.7 °F 32.0 °F 61% 30.12 in 10.0 mi West 9.2 mph 16.1 mph N/A   Overcast
4:15 AM 44.6 °F 42.2 °F 32.0 °F 61% 30.11 in 10.0 mi West 4.6 mph - N/A   Overcast
4:35 AM 44.6 °F 41.4 °F 32.0 °F 61% 30.11 in 10.0 mi West 5.8 mph - N/A   Overcast
4:55 AM 44.6 °F 40.7 °F 32.0 °F 61% 30.11 in 10.0 mi WNW 6.9 mph - N/A   Overcast
5:15 AM 44.6 °F 40.7 °F 32.0 °F 61% 30.11 in 10.0 mi WNW 6.9 mph - N/A   Overcast
5:35 AM 44.6 °F 42.2 °F 32.0 °F 61% 30.11 in 10.0 mi WNW 4.6 mph - N/A   Overcast
5:55 AM 44.6 °F 41.4 °F 30.2 °F 57% 30.11 in 10.0 mi West 5.8 mph - N/A   Overcast
6:15 AM 44.6 °F 42.2 °F 30.2 °F 57% 30.11 in 10.0 mi West 4.6 mph - N/A   Overcast
6:35 AM 44.6 °F 40.2 °F 32.0 °F 61% 30.11 in 10.0 mi WNW 8.1 mph - N/A   Overcast
6:55 AM 44.6 °F 40.7 °F 30.2 °F 57% 30.11 in 10.0 mi WNW 6.9 mph - N/A   Overcast
7:15 AM 44.6 °F 41.4 °F 30.2 °F 57% 30.12 in 10.0 mi West 5.8 mph - N/A   Overcast
7:35 AM 44.6 °F 43.1 °F 32.0 °F 61% 30.12 in 10.0 mi West 3.5 mph - N/A   Overcast
7:55 AM 44.6 °F 40.7 °F 32.0 °F 61% 30.12 in 10.0 mi WNW 6.9 mph - N/A   Overcast
8:15 AM 46.4 °F 45.2 °F 32.0 °F 57% 30.12 in 10.0 mi WNW 3.5 mph - N/A   Overcast
8:35 AM 46.4 °F 42.9 °F 32.0 °F 57% 30.12 in 10.0 mi West 6.9 mph - N/A   Overcast
8:55 AM 44.6 °F 42.2 °F 32.0 °F 61% 30.13 in 10.0 mi West 4.6 mph - N/A   Overcast
9:15 AM 46.4 °F 45.2 °F 32.0 °F 57% 30.13 in 10.0 mi West 3.5 mph - N/A   Overcast
9:35 AM 46.4 °F 44.3 °F 32.0 °F 57% 30.13 in 10.0 mi WSW 4.6 mph - N/A   Overcast
9:55 AM 46.4 °F 43.5 °F 32.0 °F 57% 30.14 in 10.0 mi West 5.8 mph - N/A   Overcast
10:15 AM 46.4 °F 44.3 °F 33.8 °F 62% 30.14 in 10.0 mi SSW 4.6 mph - N/A   Overcast
10:35 AM 44.6 °F - 33.8 °F 66% 30.15 in 10.0 mi Calm Calm - N/A   Overcast
10:55 AM 44.6 °F - 35.6 °F 71% 30.15 in 10.0 mi Calm Calm - N/A Rain Light Rain
11:15 AM 42.8 °F - 37.4 °F 81% 30.15 in 10.0 mi Calm Calm - N/A Rain Light Rain
11:35 AM 42.8 °F 41.1 °F 39.2 °F 87% 30.15 in 10.0 mi NNE 3.5 mph - N/A Rain Rain
11:55 AM 42.8 °F - 39.2 °F 87% 30.17 in 10.0 mi Calm Calm - N/A Rain Light Rain
12:15 PM 42.8 °F 40.1 °F 33.8 °F 70% 30.16 in 10.0 mi NW 4.6 mph - N/A Rain Rain
12:35 PM 42.8 °F 40.1 °F 32.0 °F 66% 30.17 in 10.0 mi WNW 4.6 mph - N/A   Overcast
12:55 PM 44.6 °F 41.4 °F 32.0 °F 61% 30.16 in 10.0 mi NW 5.8 mph - N/A   Overcast
1:15 PM 44.6 °F 40.7 °F 32.0 °F 61% 30.15 in 10.0 mi NW 6.9 mph - N/A   Overcast
1:35 PM 44.6 °F 41.4 °F 32.0 °F 61% 30.15 in 10.0 mi NW 5.8 mph - N/A   Overcast
1:55 PM 44.6 °F 41.4 °F 30.2 °F 57% 30.15 in 10.0 mi WNW 5.8 mph - N/A   Overcast
2:35 PM 44.6 °F 40.2 °F 28.4 °F 53% 30.15 in 10.0 mi WNW 8.1 mph - N/A   Overcast
2:55 PM 44.6 °F 43.1 °F 28.4 °F 53% 30.14 in 10.0 mi WNW 3.5 mph - N/A   Overcast
3:15 PM 46.4 °F 43.5 °F 28.4 °F 50% 30.14 in 10.0 mi NW 5.8 mph - N/A   Overcast
3:35 PM 44.6 °F 42.2 °F 28.4 °F 53% 30.14 in 10.0 mi NW 4.6 mph - N/A   Overcast
3:55 PM 46.4 °F 43.5 °F 28.4 °F 50% 30.13 in 10.0 mi WNW 5.8 mph - N/A   Overcast
4:15 PM 44.6 °F 42.2 °F 28.4 °F 53% 30.13 in 10.0 mi West 4.6 mph - N/A   Overcast
4:35 PM 44.6 °F 42.2 °F 28.4 °F 53% 30.14 in 10.0 mi West 4.6 mph - N/A   Overcast
4:55 PM 44.6 °F - 28.4 °F 53% 30.14 in 10.0 mi Calm Calm - N/A   Overcast
5:15 PM 44.6 °F - 28.4 °F 53% 30.13 in 10.0 mi Calm Calm - N/A   Overcast
5:35 PM 44.6 °F - 30.2 °F 57% 30.14 in 10.0 mi Calm Calm - N/A   Overcast
5:55 PM 44.6 °F 43.1 °F 32.0 °F 61% 30.13 in 10.0 mi South 3.5 mph - N/A   Overcast
6:15 PM 42.8 °F - 32.0 °F 66% 30.13 in 10.0 mi Calm Calm - N/A   Overcast
6:35 PM 42.8 °F 41.1 °F 32.0 °F 66% 30.13 in 10.0 mi South 3.5 mph - N/A   Overcast
6:55 PM 42.8 °F 41.1 °F 32.0 °F 66% 30.13 in 10.0 mi South 3.5 mph - N/A   Overcast
7:15 PM 41.0 °F 38.0 °F 32.0 °F 70% 30.14 in 10.0 mi SSW 4.6 mph - N/A   Overcast
7:35 PM 41.0 °F 38.0 °F 32.0 °F 70% 30.15 in 10.0 mi SSW 4.6 mph - N/A   Overcast
7:55 PM 39.2 °F 35.9 °F 30.2 °F 70% 30.15 in 10.0 mi South 4.6 mph - N/A   Overcast
8:15 PM 37.4 °F 33.8 °F 28.4 °F 70% 30.16 in 10.0 mi South 4.6 mph - N/A   Mostly Cloudy
8:35 PM 37.4 °F 33.8 °F 28.4 °F 70% 30.17 in 10.0 mi South 4.6 mph - N/A   Mostly Cloudy
8:55 PM 37.4 °F 34.9 °F 28.4 °F 70% 30.17 in 10.0 mi SSW 3.5 mph - N/A   Mostly Cloudy
9:15 PM 35.6 °F 32.8 °F 26.6 °F 70% 30.17 in 10.0 mi South 3.5 mph - N/A   Mostly Cloudy
9:35 PM 37.4 °F - 26.6 °F 65% 30.16 in 10.0 mi Calm Calm - N/A   Scattered Clouds
9:55 PM 33.8 °F - 26.6 °F 75% 30.16 in 10.0 mi Calm Calm - N/A   Clear
10:15 PM 33.8 °F - 26.6 °F 75% 30.16 in 10.0 mi Calm Calm - N/A   Clear
10:35 PM 33.8 °F - 26.6 °F 75% 30.16 in 10.0 mi Calm Calm - N/A   Clear
10:55 PM 32.0 °F - 26.6 °F 80% 30.16 in 10.0 mi Calm Calm - N/A   Clear
11:15 PM 32.0 °F - 28.4 °F 87% 30.17 in 10.0 mi Calm Calm - N/A   Clear
11:35 PM 33.8 °F - 26.6 °F 75% 30.16 in 10.0 mi Calm Calm - N/A   Clear
11:55 PM 32.0 °F - 26.6 °F 80% 30.16 in 10.0 mi Calm Calm - N/A   Clear